Regional Weather Roundup
Issued by NWS Green Bay, WI

Home | Current Version | Previous Version | Graphics & Text | Print | Product List | Glossary Off
Versions: 1 2 3 4 5 6 7 8 9 10 11 12 13 14 15 16 17 18 19 20 21 22 23 24 25 26 27 28 29 30 31 32 33 34 35 36 37 38 39 40 41 42 43 44 45 46 47 48 49 50

000
ASUS43 KGRB 271900
RWRGRB

NORTH-CENTRAL AND NORTHEAST WISCONSIN REGIONAL WEATHER ROUNDUP
NATIONAL WEATHER SERVICE GREEN BAY WI
200 PM CDT THU AUG 27 2015

WIZ005-009-010>012-018-019-272000-
NORTH CENTRAL WISCONSIN

CITY           SKY/WX    TMP DP  RH WIND       PRES   REMARKS
IRONWOOD       SUNNY     73  54  49 SW10      30.04F
MANITOWISH WTR NOT AVBL
ARBOR VITAE    NOT AVBL
EAGLE RIVER    NOT AVBL
LAND O LAKES   NOT AVBL
RHINELANDER    SUNNY     73  52  47 S10       30.12F
PHILLIPS       MOSUNNY   72  56  56 S9        30.09F
ANTIGO         NOT AVBL
TOMAHAWK       NOT AVBL
MERRILL        NOT AVBL
$$

WIZ013-073-272000-
NORTHEAST WISCONSIN

CITY           SKY/WX    TMP DP  RH WIND       PRES   REMARKS
IRON MOUNTAIN  SUNNY     72  54  53 S7        30.10F
MARINETTE      SUNNY     66  55  68 SE8       30.13F
$$

WIZ017-030-035>037-045-272000-
CENTRAL WISCONSIN

CITY           SKY/WX    TMP DP  RH WIND       PRES   REMARKS
MEDFORD        NOT AVBL
WAUSAU         SUNNY     74  54  49 SW8       30.11F
MOSINEE        MOSUNNY   72  55  56 S8        30.13F
MARSHFIELD     MOSUNNY   75  53  46 SW10      30.11F
WISC RAPIDS    MOSUNNY   74  54  49 SW9       30.13F
STEVENS POINT  NOT AVBL
WAUPACA        NOT AVBL
SHAWANO        NOT AVBL
CLINTONVILLE   MOSUNNY   72  52  49 SW5       30.12F
WAUTOMA        NOT AVBL
$$

WIZ038-039-048-051-272000-
FOX VALLEY

CITY           SKY/WX    TMP DP  RH WIND       PRES   REMARKS
NWS GREEN BAY  MOSUNNY   74  58  57 W5        30.13F
APPLETON       NOT AVBL
OSHKOSH        MOSUNNY   74  56  53 SW9       30.14F
FOND DU LAC    MOSUNNY   74  56  53 S7        30.15F
$$

WIZ022-050-052-272000-
EAST CENTRAL WISCONSIN

CITY           SKY/WX    TMP DP  RH WIND       PRES   REMARKS
EPHRAIM        FAIR      68  56  65 CALM      30.13F
STURGEON BAY   SUNNY     66  57  72 NW5       30.17S
MANITOWOC      NOT AVBL
SHEBOYGAN      PTSUNNY   70  58  65 S9        30.15F
$$

LMZ563-521-522-541>543-272000-
LAKESHORE

STATION/POSITION TIME  TEMP    WIND        PRES    VSBY  WAVE
                       AIR SEA DIR/SP/G                  HT/PER
                 (UTC) (F)     (DEG/KT/KT) (MB)    (MI)  (FT/S)
SHEBOYGAN LKSHOR 1800   62     180/ 19/ 20 1021.6F
KEWAUNEE LKSHORE 1800   53     170/  7/  8 1020.1F
ALGOMA MARINA    1814             CALM       N/A
NORTHPORT PIER   1800   60     120/  6/  7 1021.0S
N MID LAKE BUOY  1750   61 65  190/ 10/ 12 1020.9F         1
S GREEN BAY BUOY 1800   57     170/  4/  6 1022.4F
SISTER BAY LKSHO 1804   69     310/  7/  8   N/A
CHAMBERS ISLAND  1800   63     330/  4/  7 1021.0F
MENOMINEE LKSHOR 1800   58     150/  6/  7 1019.7F
$$


USA.gov is the U.S. government's official web portal to all federal, state and local government web resources and services.